Location: Kanab
(37.0481°N, 112.5285°W)
Time: 21:18:49
(UTC-06:00)

Tiangong - Visible Passes

Search period start: 20 October 2021 00:00
Search period end: 30 October 2021 00:00
Orbit: 382 x 384 km, 41.5° (Epoch: 20 October)

Date Brightness Start Highest point End Pass type
(mag) Time Alt. Az. Time Alt. Az. Time Alt. Az.
20 Oct 1.1 19:08:46 10° WSW 19:11:55 83° NNW 19:15:06 10° ENE visible
20 Oct 3.3 20:46:00 10° WNW 20:47:37 24° NW 20:47:37 24° NW visible
21 Oct 1.9 19:45:39 10° W 19:48:40 41° N 19:50:17 22° NE visible
22 Oct 2.4 20:22:35 10° WNW 20:25:06 33° NNW 20:25:06 33° NNW visible
23 Oct 2.1 19:22:14 10° WNW 19:25:12 35° N 19:27:42 13° ENE visible
23 Oct 4.2 20:59:16 10° WNW 20:59:53 15° WNW 20:59:53 15° WNW visible
24 Oct 1.8 19:59:02 10° WNW 20:02:01 38° N 20:02:29 35° NNE visible
25 Oct 3.0 20:35:33 10° WNW 20:37:17 29° WNW 20:37:17 29° WNW visible
26 Oct 1.5 19:35:18 10° WNW 19:38:22 47° NNE 19:39:57 24° ENE visible
27 Oct 1.1 20:11:46 10° WNW 20:14:51 72° SW 20:14:51 72° SW visible
28 Oct 1.1 19:11:27 10° WNW 19:14:36 69° NNE 19:17:39 11° ESE visible
28 Oct 4.0 20:48:39 10° W 20:49:50 17° WSW 20:49:50 17° WSW visible
29 Oct 2.2 19:47:59 10° W 19:50:59 40° SSW 19:52:46 20° SSE visible
